[[{"header":{"parameterUnit":"m.s-1","parameterCategory":1,"la1":30.2991,"la2":30.254,"lo1":-89.0895,"lo2":-89.0444,"dy":0.0017,"dx":0.0017,"nx":28,"ny":28,"refTime":"2024-05-28T03:00:00:Z","depth":0,"parameterNumber":2,"parameterNumberName":"U-component_of_WINDS"},"data":[0,0,0,0,0,0,0,0,0,0,0,0,0,0,0,0,0,0,0,0,0,0,0,0,0,0,0,0,0,0,0,0,0,0,0,0,0,0,0,0,0,0,0,0,0,0,0,0,0,0,0,0,0,0,0,0,0,0,1.4995,1.4996,0,1.5112,1.5113,1.5115,1.5145,1.5144,1.5143,1.5142,1.5262,1.5266,1.527,0,0,0,0,0,0,0,0,0,0,0,0,0,1.4798,1.4801,1.4995,1.4997,1.4998,1.5112,1.5113,1.5115,1.5145,1.5144,1.5143,1.5142,1.5261,1.5265,1.527,0,0,0,0,0,0,0,0,0,0,0,0,0,1.4896,1.4803,1.4995,1.5027,1.5031,1.5111,1.5113,1.5115,1.5145,1.5144,1.5143,1.5142,1.5259,1.5265,1.5271,1.5328,0,0,1.5288,1.5291,0,0,0,0,0,0,0,0,1.489,1.4903,1.502,1.5025,1.5029,1.5113,1.5088,1.5187,1.5145,1.5102,1.5142,1.5141,1.5213,1.5223,1.5247,1.5334,1.5339,1.5289,1.5292,1.5295,1.5296,0,0,0,0,0,0,0,1.4884,1.4898,1.5041,1.5022,1.5027,1.5035,1.5048,1.5107,1.5162,1.5105,1.5108,1.5121,1.5215,1.5241,1.525,1.534,1.5289,1.5294,1.5297,1.5299,1.548,1.5482,0,0,0,0,0,0,1.4871,1.4892,1.5038,1.5045,1.4956,1.5039,1.5054,1.5087,1.5161,1.5172,1.5122,1.5122,1.5232,1.5243,1.5254,1.5326,1.5295,1.53,1.5303,1.5479,1.5481,1.5482,0,0,0,0,0,0,1.4867,1.4884,1.5033,1.4969,1.4989,1.5044,1.5081,1.509,1.5116,1.5174,1.5184,1.5138,1.5232,1.5246,1.5309,1.5331,1.5303,1.5308,1.5477,1.548,1.5481,1.5471,0,0,0,0,0,0,1.4861,1.4882,1.4904,1.497,1.4992,1.5086,1.5082,1.5093,1.5126,1.5127,1.5192,1.5202,1.5232,1.5301,1.5315,1.5338,1.5312,1.5476,1.5478,1.5481,1.5469,1.5472,1.5474,0,0,0,0,0,1.4854,1.4897,1.4905,1.4923,1.5021,1.5087,1.51,1.5134,1.5127,1.515,1.5188,1.52,1.5326,1.5307,1.5324,1.5349,1.5475,1.5478,1.5481,1.5468,1.5472,1.5474,0,0,0,0,0,0,1.4832,1.4906,1.4916,1.4981,1.5028,1.5092,1.5122,1.5136,1.5185,1.5184,1.5224,1.5239,1.5299,1.5331,1.5308,1.5408,1.5401,1.5407,1.5385,1.5389,1.5392,1.5382,1.5317,0,0,0,0,0,1.4835,1.4883,1.4944,1.4996,1.5019,1.5066,1.5096,1.5118,1.5168,1.5188,1.523,1.5277,1.5328,1.5361,1.541,1.5474,1.5489,1.55,1.5503,1.5504,1.5509,1.5545,1.5551,1.5492,1.5492,1.5492,0,0,1.4841,1.4888,1.4915,1.4993,1.5031,1.5079,1.5082,1.5133,1.5169,1.5195,1.5257,1.529,1.5346,1.541,1.544,1.5438,1.5529,1.5508,1.5509,1.5513,1.5549,1.5555,1.5559,1.5494,1.5494,1.5493,0,0,1.4877,1.4917,1.4964,1.5003,1.5061,1.5093,1.5104,1.5167,1.5189,1.5253,1.5273,1.5317,1.5403,1.5442,1.5473,1.5525,1.5538,1.554,1.5553,1.5588,1.5592,1.5597,1.5614,1.562,1.5545,1.5545,1.5545,0,1.4877,1.4951,1.4987,1.5037,1.507,1.5096,1.5144,1.518,1.5252,1.5274,1.5271,1.538,1.542,1.5493,1.5505,1.553,1.5544,1.5532,1.5589,1.5593,1.5598,1.5615,1.5622,1.5545,1.5545,1.5545,1.5545,0,1.4948,1.4999,1.503,1.5099,1.5136,1.5185,1.5228,1.5261,1.528,1.5312,1.5376,1.5425,1.5485,1.5504,1.5523,1.5581,1.5577,1.5581,1.5574,1.5603,1.562,1.5627,1.5544,1.5544,1.5545,1.5545,0,0,1.4972,1.5061,1.5072,1.5103,1.517,1.521,1.526,1.5319,1.5347,1.5396,1.5438,1.5511,1.5515,1.555,1.5574,1.5605,1.5642,1.5605,1.5607,1.561,1.5708,1.5704,1.5711,1.5652,1.5653,1.5654,1.5703,0,1.5016,1.5106,1.514,1.5214,1.5261,1.5287,1.5331,1.5377,1.5408,1.5453,1.5488,1.5538,1.554,1.5561,1.5593,1.5631,1.5662,1.5628,1.5692,1.5693,1.5676,1.5721,1.5717,1.576,1.571,1.5711,1.5712,0,1.5079,1.5128,1.5207,1.5268,1.5289,1.5328,1.5385,1.5427,1.548,1.55,1.554,1.5562,1.5616,1.5606,1.568,1.5656,1.5685,1.5707,1.571,1.5716,1.5704,1.5728,1.5775,1.5781,1.5723,1.5722,1.5721,0,1.5088,1.5174,1.5233,1.5259,1.5332,1.5358,1.539,1.5442,1.5475,1.5525,1.5547,1.5602,1.5633,1.5675,1.5712,1.5701,1.5783,1.5776,1.5801,1.58,1.5816,1.5815,1.5868,1.5836,1.5836,1.5836,1.5835,0,1.5132,1.5179,1.5238,1.5273,1.5327,1.5366,1.5418,1.5451,1.5497,1.5539,1.5566,1.5605,1.5651,1.5697,1.5726,1.5783,1.5797,1.5815,1.5822,1.5812,1.581,1.583,1.5828,1.5837,1.5837,1.5837,1.5836,0,1.5151,1.5192,1.5257,1.5321,1.5339,1.5375,1.543,1.5466,1.5499,1.5552,1.5567,1.5619,1.5674,1.5715,1.5786,1.5806,1.5866,1.5874,1.5848,1.5852,1.5875,1.5871,1.5943,1.5954,1.5914,1.5915,1.5915,0,1.5176,1.5213,1.5281,1.5312,1.5343,1.5392,1.5426,1.5467,1.5501,1.5564,1.5592,1.5649,1.5697,1.5784,1.5827,1.5882,1.5891,1.5912,1.5899,1.5888,1.5891,1.5888,1.5891,1.5914,1.5914,1.5914,1.5914,0,1.5216,1.5235,1.5284,1.5339,1.538,1.5425,1.5472,1.5495,1.5544,1.5581,1.5638,1.5675,1.5748,1.5804,1.5863,1.5896,1.5913,1.5918,1.5927,1.5917,1.59,1.5909,1.5852,1.5916,1.5916,1.5916,1.5916,1.5916,1.5239,1.5273,1.5326,1.5379,1.5418,1.5461,1.5498,1.5536,1.5583,1.5646,1.5667,1.5725,1.5778,1.5859,1.5893,1.5939,1.5939,1.5951,1.5955,1.5957,1.5956,1.5893,1.595,1.595,1.595,1.595,1.595,0,1.528,1.5316,1.5364,1.5428,1.547,1.5483,1.5535,1.5569,1.562,1.5668,1.5714,1.5779,1.5834,1.5883,1.594,1.5968,1.5977,1.5981,1.5979,1.5986,1.5953,1.5939,1.5973,1.5973,1.5973,1.5973,1.5973,1.5973,1.5306,1.5364,1.5389,1.5467,1.5502,1.556,1.5588,1.5628,1.5666,1.5738,1.5783,1.5815,1.5863,1.5924,1.5974,1.5987,1.6007,1.6009,1.6024,1.5991,1.5989,1.5986,1.5973,1.6013,1.6013,1.6053,1.6054,1.6054]},{"header":{"parameterUnit":"m.s-1","parameterCategory":1,"la1":30.2991,"la2":30.254,"lo1":-89.0895,"lo2":-89.0444,"dy":0.0017,"dx":0.0017,"nx":28,"ny":28,"refTime":"2024-05-28T03:00:00:Z","depth":0,"parameterNumber":3,"parameterNumberName":"V-component_of_WINDS"},"data":[0,0,0,0,0,0,0,0,0,0,0,0,0,0,0,0,0,0,0,0,0,0,0,0,0,0,0,0,0,0,0,0,0,0,0,0,0,0,0,0,0,0,0,0,0,0,0,0,0,0,0,0,0,0,0,0,0,0,1.7921,1.7921,0,1.7873,1.7872,1.7872,1.7807,1.7806,1.7805,1.7804,1.7753,1.7753,1.7753,0,0,0,0,0,0,0,0,0,0,0,0,0,1.7957,1.7957,1.7921,1.7921,1.792,1.7873,1.7872,1.7871,1.7807,1.7806,1.7805,1.7804,1.7754,1.7753,1.7753,0,0,0,0,0,0,0,0,0,0,0,0,0,1.7929,1.7957,1.7921,1.7882,1.7878,1.7873,1.7872,1.7871,1.7808,1.7806,1.7804,1.7803,1.7754,1.7753,1.7753,1.7781,0,0,1.7751,1.7751,0,0,0,0,0,0,0,0,1.793,1.7927,1.7889,1.7885,1.7881,1.7844,1.7866,1.7841,1.7808,1.7835,1.7804,1.7802,1.7785,1.7782,1.7776,1.7779,1.7776,1.7751,1.7751,1.775,1.775,0,0,0,0,0,0,0,1.7932,1.7929,1.7902,1.7888,1.7883,1.7867,1.7861,1.7861,1.7819,1.7832,1.7827,1.7823,1.7782,1.7777,1.7774,1.7776,1.7751,1.775,1.775,1.775,1.7799,1.78,0,0,0,0,0,0,1.794,1.7931,1.7903,1.79,1.7902,1.7868,1.7861,1.7858,1.7819,1.7812,1.7824,1.782,1.7778,1.7775,1.7772,1.7803,1.775,1.775,1.7749,1.7797,1.7799,1.7801,0,0,0,0,0,0,1.7941,1.7939,1.7905,1.7915,1.7909,1.7869,1.7865,1.7858,1.7852,1.7813,1.7805,1.7826,1.7777,1.7773,1.7779,1.78,1.775,1.7749,1.7795,1.7798,1.78,1.7865,0,0,0,0,0,0,1.7943,1.7939,1.795,1.7915,1.7909,1.7914,1.7867,1.7858,1.7851,1.7845,1.7813,1.7806,1.7775,1.778,1.7779,1.7799,1.7749,1.7793,1.7796,1.7799,1.7861,1.7869,1.7876,0,0,0,0,0,1.7944,1.797,1.7951,1.7948,1.7921,1.7915,1.7912,1.7877,1.7853,1.7863,1.7838,1.7807,1.7798,1.7782,1.7779,1.7799,1.7792,1.7795,1.7799,1.7857,1.7867,1.7876,0,0,0,0,0,0,1.8008,1.7965,1.7943,1.7958,1.7941,1.7904,1.7916,1.7889,1.7877,1.7872,1.7829,1.7822,1.7834,1.7817,1.7799,1.7824,1.779,1.7794,1.7835,1.7845,1.7853,1.7856,1.7748,0,0,0,0,0,1.8024,1.8023,1.7985,1.8002,1.7994,1.7957,1.7953,1.7928,1.7908,1.79,1.7875,1.7857,1.785,1.7846,1.7838,1.7858,1.7849,1.787,1.7878,1.7885,1.7888,1.7897,1.7906,1.7813,1.7813,1.7813,0,0,1.8057,1.8033,1.8035,1.8014,1.7998,1.7997,1.7951,1.7953,1.7952,1.79,1.7904,1.7886,1.7862,1.7876,1.788,1.7862,1.7912,1.7889,1.7895,1.7895,1.7902,1.7911,1.7919,1.7815,1.7815,1.7814,0,0,1.8116,1.8098,1.811,1.8095,1.8071,1.8045,1.8049,1.8016,1.8002,1.8006,1.7967,1.7965,1.7954,1.7939,1.7929,1.7983,1.7954,1.7981,1.8023,1.8032,1.804,1.8046,1.8065,1.8072,1.7985,1.7985,1.7985,0,1.816,1.8158,1.812,1.8124,1.8116,1.8069,1.8081,1.8068,1.8042,1.8038,1.8018,1.8003,1.7984,1.7993,1.8006,1.8,1.8002,1.7985,1.8042,1.8048,1.8053,1.8071,1.8078,1.7989,1.7988,1.7988,1.7988,0,1.8213,1.8212,1.8225,1.8202,1.8195,1.8203,1.8166,1.8164,1.8139,1.8116,1.812,1.8096,1.8081,1.8081,1.8057,1.8087,1.8076,1.805,1.8014,1.8066,1.8082,1.8088,1.7994,1.7992,1.7991,1.799,0,0,1.8311,1.8267,1.8272,1.8261,1.8231,1.8229,1.8235,1.8221,1.822,1.8204,1.8207,1.8199,1.8174,1.8164,1.8137,1.8145,1.8189,1.8117,1.8116,1.8132,1.8221,1.8241,1.825,1.817,1.8171,1.8172,1.8223,0,1.8365,1.8373,1.8339,1.8356,1.8354,1.831,1.8314,1.8296,1.8275,1.827,1.8246,1.8241,1.8209,1.8202,1.8208,1.8183,1.8207,1.8179,1.8172,1.8172,1.818,1.8258,1.828,1.8329,1.8229,1.823,1.8231,0,1.8429,1.8417,1.8433,1.8402,1.84,1.8405,1.839,1.8386,1.8364,1.8348,1.8337,1.8306,1.8309,1.8275,1.8278,1.826,1.8255,1.8242,1.8243,1.8242,1.8205,1.8259,1.8344,1.8352,1.824,1.8239,1.8239,0,1.85,1.8487,1.8495,1.8487,1.8451,1.8455,1.844,1.8417,1.8411,1.8397,1.8393,1.8379,1.8372,1.8362,1.8329,1.8307,1.8336,1.8299,1.8322,1.8323,1.8331,1.8331,1.8417,1.8327,1.8327,1.8327,1.8327,0,1.8564,1.8576,1.8526,1.8532,1.8543,1.8504,1.8517,1.8497,1.8477,1.8477,1.8437,1.8438,1.8393,1.8389,1.8363,1.8369,1.8366,1.8353,1.8346,1.8357,1.8359,1.8353,1.8349,1.8329,1.8329,1.8328,1.8328,0,1.8645,1.8612,1.8618,1.8583,1.8575,1.8585,1.8555,1.8558,1.8534,1.8535,1.8533,1.8495,1.8488,1.8453,1.8438,1.842,1.8436,1.8421,1.8444,1.8439,1.8464,1.8462,1.855,1.856,1.8464,1.8465,1.8466,0,1.8688,1.8696,1.8662,1.866,1.8647,1.8643,1.8637,1.8598,1.8593,1.8569,1.8575,1.8564,1.8554,1.8545,1.8516,1.8504,1.8489,1.8521,1.8487,1.8498,1.849,1.849,1.849,1.8528,1.8529,1.853,1.8531,0,1.8768,1.8751,1.8744,1.8731,1.8725,1.8713,1.8698,1.8698,1.8655,1.8651,1.8644,1.8636,1.862,1.8611,1.8594,1.8578,1.8547,1.8542,1.8547,1.8558,1.8571,1.8564,1.8464,1.854,1.8539,1.8539,1.8538,1.8538,1.8831,1.8836,1.8813,1.8806,1.8791,1.8779,1.878,1.8756,1.8749,1.8734,1.8711,1.8707,1.8684,1.8659,1.8645,1.8641,1.8623,1.863,1.8632,1.8634,1.864,1.8571,1.8637,1.8637,1.8637,1.8636,1.8636,0,1.8909,1.8892,1.8886,1.8867,1.8862,1.8834,1.8816,1.8813,1.881,1.8792,1.8783,1.8774,1.8765,1.8735,1.8722,1.8724,1.871,1.8722,1.8722,1.8719,1.8656,1.8653,1.8734,1.8734,1.8734,1.8734,1.8734,1.8734,1.8949,1.8957,1.8938,1.8937,1.8919,1.8915,1.8908,1.8896,1.8881,1.8873,1.8865,1.8846,1.8823,1.8808,1.8798,1.8789,1.8786,1.8803,1.879,1.8732,1.8723,1.8714,1.8711,1.8803,1.8803,1.8853,1.8854,1.8854]}]]